sat.trackr.live / text

‹ back to catalog

STARLINK-32518

NORAD 61967 · 2024-210J

PAYLOAD ACTIVE UNKNOWN

§ Identity

Operator
Country
US
Launch date
2024-11-14
Launch site
AFETR
Launch vehicle
Mass (kg)
RCS (m²)

Purposes: comms

External: N2YO · Heavens-Above · Gunter

§ Orbital elements

Epoch: 2026-09-21T22:55:27.360192Z

Period
94.27 min
Inclination
42.9979°
Eccentricity
0.0000285
Mean motion
15.27591518 rev/d
Perigee alt
482.8 km
Apogee alt
483.2 km
Semi-major
6,861.2 km
B*
5.3741e-4
RAAN
144.5247°
Arg perigee
180.6440°
Mean anomaly
179.4411°
Rev number
10,487

§ Raw data

STARLINK-325181 61967U 24210J   26264.95517778  .00014561  00000+0  53741-3 0  99962 61967  42.9979 144.5247 0000285 180.6440 179.4411 15.27591518104877

JSON: /api/v1/satellites/61967 · /tle

For live sub-satellite position, see the globe view (requires WebGL).

§ Visibility from observer

Set your observer location to see the next 7 days of passes ≥ 10°. The values pass through the URL so the page stays shareable.

No JS? Fill the form by hand. The geolocation button needs JavaScript.